Antoingt, France

7:59 AM CEST on June 18, 2019 (GMT +0200)
Antoingt

Weather History for 07460 - July, 2015

Change the Weather History Date:

Friday, July 3, 2015

  Actual Average Record
Temperature  
Mean Temperature 84 °F -  
Max Temperature 103 °F 77 °F - ()
Min Temperature 65 °F 56 °F - ()
Cooling Degree Days 19    
Growing Degree Days 34 (Base 50)    
Moisture  
Dew Point 55 °F    
Average Humidity 41    
Maximum Humidity 78    
Minimum Humidity 8    
Precipitation  
Precipitation 0.00 in - - ()
Sea Level Pressure  
Sea Level Pressure 30.14 in    
Wind  
Wind Speed 4 mph ()    
Max Wind Speed 20 mph    
Max Gust Speed 30 mph    
Visibility 10.9 miles    
Events      
T = Trace of Precipitation, MM = Missing Value Source: Averaged Metar Reports

Daily Weather History Graph

Daily Weather History Graph

Search for Another Location

Airport or City:

Astronomy

Jul. 03, 2015 Rise Set
Actual Time 6:02 AM CEST 9:40 PM CEST
Civil Twilight 5:24 AM CEST 10:18 PM CEST
Nautical Twilight 4:33 AM CEST 11:08 PM CEST
Astronomical Twilight 3:25 AM CEST 12:16 AM CEST
Moon 10:29 PM CEST (7/3) 7:40 AM CEST (7/3)
Length of Visible Light 16h 54m
Length of Day
15h 38m
Full, 98% of the Moon is Illuminated
Jul 3
Full
Jul 8
Last Quarter
Jul 16
New
Jul 24
First Quarter
Jul 31
Full

Hourly Weather History & Observations

Time (CEST) Temp. Heat Index Dew Point Humidity Pressure Visibility Wind Dir Wind Speed Gust Speed Precip Events Conditions
12:00 AM 76 °F - 55 °F 38% 30.18 in 28 mi Calm Calm - -   Clear
12:00 AM 75.2 °F - 55.4 °F 50% 30.21 in - Calm Calm - N/A   Clear
12:30 AM 73.4 °F - 55.4 °F 53% 30.21 in - East 3.5 mph - N/A   Clear
1:00 AM 73 °F - 56 °F 44% 30.19 in 28 mi East 2.3 mph - -   Clear
1:00 AM 73.4 °F - 55.4 °F 53% 30.21 in - East 2.3 mph - N/A   Clear
1:30 AM 71.6 °F - 55.4 °F 57% 30.21 in - East 2.3 mph - N/A   Clear
2:00 AM 71 °F - 55 °F 47% 30.21 in 28 mi East 3.5 mph - -   Clear
2:00 AM 71.6 °F - 55.4 °F 57% 30.24 in - East 3.5 mph - N/A   Clear
2:30 AM 71.6 °F - 57.2 °F 60% 30.24 in - Variable 2.3 mph - N/A   Clear
3:00 AM 71 °F - 58 °F 54% 30.21 in 22 mi WNW 1.2 mph - -   Clear
3:00 AM 69.8 °F - 57.2 °F 64% 30.24 in - Variable 1.2 mph - N/A   Clear
3:30 AM 68.0 °F - 57.2 °F 68% 30.21 in - Calm Calm - N/A   Clear
4:00 AM 67 °F - 58 °F 66% 30.21 in 4 mi Calm Calm - -   Clear
4:00 AM 68.0 °F - 59.0 °F 73% 30.24 in - Calm Calm - N/A   Clear
4:30 AM 66.2 °F - 59.0 °F 78% 30.24 in - Variable 2.3 mph - N/A   Clear
5:00 AM 67 °F - 59 °F 70% 30.21 in 2 mi NE 2.3 mph - -   Mist
5:00 AM 68.0 °F - 59.0 °F 73% 30.21 in 6.2 mi Variable 2.3 mph - N/A   Unknown
5:30 AM 66.2 °F - 59.0 °F 78% 30.21 in - SSW 2.3 mph - N/A   Clear
6:00 AM 67 °F - 59 °F 69% 30.21 in 8 mi NE 1.2 mph - -   Clear
6:00 AM 68.0 °F - 59.0 °F 73% 30.21 in - Variable 1.2 mph - N/A   Clear
6:30 AM 68.0 °F - 59.0 °F 73% 30.21 in - Calm Calm - N/A   Clear
7:00 AM 68 °F - 59 °F 67% 30.21 in 22 mi SE 2.3 mph - -   Clear
7:00 AM 68.0 °F - 59.0 °F 73% 30.21 in - Variable 2.3 mph - N/A   Clear
7:30 AM 71.6 °F - 60.8 °F 69% 30.21 in - Variable 3.5 mph - N/A   Clear
8:00 AM 72 °F - 61 °F 59% 30.20 in 17 mi North 2.3 mph - -   Clear
8:00 AM 71.6 °F - 60.8 °F 69% 30.21 in - Variable 2.3 mph - N/A   Clear
8:30 AM 75.2 °F - 60.8 °F 61% 30.24 in - Variable 1.2 mph - N/A   Clear
9:00 AM 77 °F - 61 °F 48% 30.19 in 12 mi SE 6.9 mph - -   Clear
9:00 AM 77.0 °F - 60.8 °F 57% 30.21 in - SE 6.9 mph - N/A   Clear
9:30 AM 77.0 °F - 62.6 °F 61% 30.24 in - South 6.9 mph - N/A   Clear
10:00 AM 78 °F - 62 °F 49% 30.19 in 31 mi South 6.9 mph - -   Clear
10:00 AM 78.8 °F - 62.6 °F 57% 30.24 in - South 6.9 mph - N/A   Clear
10:30 AM 78.8 °F - 62.6 °F 57% 30.21 in - Variable 2.3 mph - N/A   Clear
11:00 AM 80 °F - 62 °F 44% 30.18 in 28 mi ESE 2.3 mph - -   Clear
11:00 AM 78.8 °F - 62.6 °F 57% 30.21 in - Variable 2.3 mph - N/A   Clear
11:30 AM 82.4 °F 82.9 °F 60.8 °F 48% 30.21 in - SSE 6.9 mph - N/A   Clear
12:00 PM 84 °F - 61 °F 36% 30.13 in 28 mi SSE 3.5 mph - -   Clear
12:00 PM 84.2 °F 84.4 °F 60.8 °F 45% 30.18 in - SSE 3.5 mph - N/A   Clear
12:30 PM 86.0 °F 85.4 °F 59.0 °F 40% 30.18 in - SE 5.8 mph - N/A   Clear
1:00 PM 89 °F - 60 °F 28% 30.10 in 25 mi SE 4.6 mph - -   Clear
1:00 PM 87.8 °F 87.6 °F 60.8 °F 40% 30.15 in - SE 4.6 mph - N/A   Clear
1:30 PM 91.4 °F 89.9 °F 57.2 °F 31% 30.15 in - SE 4.6 mph - N/A   Clear
2:00 PM 94 °F - 58 °F 21% 30.05 in 12 mi East 5.8 mph - -   Clear
2:00 PM 93.2 °F 92.6 °F 59.0 °F 32% 30.12 in - East 5.8 mph - N/A   Clear
2:30 PM 95.0 °F 93.7 °F 57.2 °F 28% 30.09 in - NE 4.6 mph - N/A   Clear
3:00 PM 100 °F - 53 °F 13% 30.01 in 28 mi ENE 5.8 mph - -   Clear
3:00 PM 100.4 °F 98.4 °F 53.6 °F 21% 30.09 in - ENE 5.8 mph - N/A   Clear
3:30 PM 100.4 °F - 51.8 °F 20% 30.06 in - Variable 5.8 mph - N/A   Clear
4:00 PM 103 °F - 48 °F 9% 29.97 in 12 mi South 16.1 mph - -   Clear
4:00 PM 104.0 °F - 48.2 °F 15% 30.06 in - South 16.1 mph - N/A   Clear
4:30 PM 104.0 °F - 46.4 °F 14% 30.06 in - South 18.4 mph 29.9 mph N/A   Clear
5:00 PM 102 °F - 46 °F 8% 29.96 in 17 mi South 17.3 mph - -   Clear
5:00 PM 102.2 °F - 46.4 °F 15% 30.04 in - South 17.3 mph - N/A   Clear
5:30 PM 102.2 °F - 46.4 °F 15% 30.04 in - South 17.3 mph - N/A   Clear
6:00 PM 101 °F - 49 °F 10% 29.96 in 15 mi South 19.6 mph - -   Clear
6:00 PM 102.2 °F - 48.2 °F 16% 30.04 in - South 19.6 mph - N/A   Clear
6:30 PM 100.4 °F - 46.4 °F 16% 30.04 in - South 16.1 mph - N/A   Clear
7:00 PM 99 °F - 47 °F 10% 29.96 in 15 mi SSW 13.8 mph - -   Clear
7:00 PM 98.6 °F - 46.4 °F 17% 30.04 in - SSW 13.8 mph - N/A   Clear
7:30 PM 98.6 °F - 44.6 °F 16% 30.04 in - SW 15.0 mph - N/A   Clear
8:00 PM 97 °F - 46 °F 10% 29.97 in 22 mi SW 12.7 mph - -   Clear
8:00 PM 96.8 °F - 46.4 °F 18% 30.06 in - SW 12.7 mph - N/A   Clear
8:30 PM 93.2 °F - 44.6 °F 19% 30.06 in - SW 11.5 mph - N/A   Clear
9:00 PM 92 °F - 47 °F 12% 30.00 in 34 mi South 6.9 mph - -   Clear
9:00 PM 91.4 °F - 46.4 °F 21% 30.06 in - South 6.9 mph - N/A   Clear
9:30 PM 87.8 °F - 48.2 °F 25% 30.06 in - SW 8.1 mph - N/A   Clear
10:00 PM 86 °F - 48 °F 17% 30.03 in 37 mi SSW 4.6 mph - -   Clear
10:00 PM 86.0 °F - 48.2 °F 27% 30.09 in - SSW 4.6 mph - N/A   Clear
10:30 PM 82.4 °F - 50.0 °F 32% 30.09 in - South 6.9 mph - N/A   Clear
11:00 PM 81 °F - 50 °F 23% 30.06 in 37 mi South 9.2 mph - -   Clear
11:00 PM 80.6 °F - 50.0 °F 34% 30.09 in - South 9.2 mph - N/A   Clear
11:30 PM 84.2 °F - 50.0 °F 30% 30.12 in - South 12.7 mph - N/A   Clear